Regional Weather Roundup
Issued by NWS

Home | Current Version | Previous Version | Text Only | Print | Product List | Glossary On
Versions: 1 2 3 4 5 6 7 8 9 10 11 12 13 14 15 16 17 18 19 20 21 22 23 24 25 26 27 28 29 30 31 32 33 34 35 36 37 38 39 40 41 42 43 44 45 46 47 48 49 50
000
ASUS45 KBOI 312010
RWRID
WEATHER ROUNDUP FOR IDAHO
NATIONAL WEATHER SERVICE BOISE ID
200 PM MDT THU JUL 31 2014

NOTE: "FAIR" INDICATES FEW OR NO CLOUDS BELOW 12000 FEET
WITH NO SIGNIFICANT WEATHER AND/OR OBSTRUCTIONS TO VISIBILITY

IDZ012-014-312100-
SOUTHWEST IDAHO


CITY           SKY/WX    TMP DP  RH WIND       PRES   REMARKS
BOISE          SUNNY     92  46  20 VRB5      30.08F
CALDWELL       NOT AVBL
MOUNTAIN HOME  MOSUNNY   90  48  23 VRB7      30.09F
$$

IDZ016-017-312100-
SOUTHCENTRAL IDAHO


CITY           SKY/WX    TMP DP  RH WIND       PRES   REMARKS
BURLEY         SUNNY     86  44  23 N8        30.15F
JEROME         SUNNY     89  43  20 VRB7      30.16F
TWIN FALLS     SUNNY     89  47  23 NE12      30.16F
$$

IDZ019>023-312100-
SOUTHEAST IDAHO


CITY           SKY/WX    TMP DP  RH WIND       PRES   REMARKS
IDAHO FALLS    MOSUNNY   84  43  23 VRB3      30.23F
POCATELLO      MOSUNNY   87  44  22 N9G20     30.19F
REXBURG        MOSUNNY   81  42  25 SW5       30.23F
$$

IDZ006-010-011-018-031-032-312100-
CENTRAL IDAHO MOUNTAINS


CITY           SKY/WX    TMP DP  RH WIND       PRES   REMARKS
MCCALL         MOSUNNY   85  39  19 N15       30.22F
HAILEY         MOSUNNY   81  48  32 SE10      30.27F
STANLEY          N/A     77  45  32 VRB6      30.34F
SALMON         MOSUNNY   82  46  28 SW3       30.15S
CHALLIS        PTSUNNY   87  39  18 NW18G25   30.23F
$$

IDZ002-004-006-007-026-312100-
NORTHERN IDAHO


CITY           SKY/WX    TMP DP  RH WIND       PRES   REMARKS
LEWISTON       SUNNY     99  42  14 VRB6      29.99F HX  94
LOWELL           N/A     96  54  24 CALM      29.99F HX  94
COEUR D`ALENE  SUNNY     91  48  22 CALM      30.05F
MULLAN PASS    SUNNY     77  31  18 CALM      30.32F
$$


USA.gov is the U.S. government's official web portal to all federal, state and local government web resources and services.